RH
38 41 46 52 49 44 48 45 53 55 56 62 53 42 34 32 32 28 24 23 28 35 35 25 23 25 23 20 21 24 25 26 26 26 25 24 23 22 21 20 20 19 19
38 53 65 60 54 49 53 55 51 41 65 55 44 43 32 29 29 31 26 27 37 36 38 37 29 35 39 37 27 27 28 26 25 25 24 22 18 14 11 11 12 11 9
52 66 61 63 56 48 55 60 50 60 58 44 45 43 33 33 31 36 36 33 39 38 34 45 38 33 43 43 26 27 28 27 26 24 22 16 10 9 9 9 8 7 5
70 78 64 72 54 54 65 56 54 66 48 45 49 42 38 35 35 37 36 36 35 34 35 47 52 43 52 32 28 30 30 28 27 22 17 12 12 9 8 7 6 5 4
79 79 75 74 57 61 66 58 72 58 44 45 49 45 35 38 44 45 48 51 52 49 56 60 56 55 50 32 34 34 31 30 28 21 12 8 11 13 10 8 6 5 4
93 90 81 70 58 61 60 49 75 59 51 55 52 44 41 49 54 55 54 52 52 56 60 62 61 53 47 32 34 34 32 33 29 19 11 10 10 11 8 7 6 4 4
99 80 67 62 60 58 54 69 81 66 59 47 44 39 37 43 53 50 55 57 54 52 50 58 57 46 32 34 39 38 36 35 29 16 12 9 7 6 5 5 4 3 3
88 73 63 62 58 73 54 74 68 71 68 58 47 44 38 39 44 48 54 61 61 58 58 53 51 42 39 49 51 45 42 39 26 14 8 8 6 4 3 3 3 3 3
89 74 75 66 70 77 76 77 77 86 93 81 66 60 50 41 53 59 63 69 67 68 64 64 68 64 55 57 47 49 49 44 26 12 6 5 4 3 3 3 3 4 4
82 72 64 66 76 87 81 78 85 94 95 89 86 75 64 58 52 54 60 67 73 78 88 88 83 73 70 56 59 56 52 45 28 12 8 5 4 3 3 4 5 5 5
68 65 69 79 79 73 73 80 86 94 95 100 100 93 89 88 79 75 77 77 77 89 93 94 95 86 69 67 65 62 56 44 23 12 8 6 5 5 5 5 5 6 6
69 74 76 83 80 83 84 86 91 98 98 100 94 100 100 100 100 99 98 92 99 96 98 94 100 93 82 85 77 63 53 33 14 9 7 6 7 7 6 7 7 7 8
73 72 84 84 85 87 88 90 96 95 92 87 100 99 99 96 99 99 98 98 95 98 100 99 100 94 90 75 62 55 40 19 10 7 8 10 9 8 8 8 8 8 9
72 81 86 87 94 93 96 90 85 85 82 99 98 96 92 97 100 99 99 100 94 100 100 100 99 95 76 61 56 43 22 11 8 9 11 10 9 9 9 9 9 9 22
80 86 88 86 90 94 90 85 85 78 82 64 98 100 92 98 99 99 85 96 100 99 99 100 97 80 67 58 43 24 12 9 10 10 9 9 10 9 9 9 9 11 20
72 74 81 87 90 94 96 91 92 97 83 92 81 99 69 95 100 97 77 86 94 92 99 99 88 70 64 47 25 13 10 11 11 10 11 11 11 11 10 10 14 68 71
74 78 77 91 99 100 100 95 78 75 81 78 82 96 83 96 100 95 90 92 91 100 96 84 74 66 53 28 14 12 14 13 12 12 13 13 13 12 10 10 16 40 68
70 83 99 99 98 100 99 99 89 76 90 87 67 89 99 100 91 100 100 97 95 93 77 68 66 57 33 17 13 15 14 14 13 14 15 15 14 13 10 10 19 51 69
99 100 99 93 93 97 93 94 91 82 80 88 87 96 99 99 88 92 99 94 86 81 72 67 59 34 21 13 17 17 16 16 15 16 16 17 17 14 9 7 15 67 80
92 70 85 87 90 92 89 92 85 85 86 96 100 95 98 86 100 100 95 85 86 80 72 58 36 24 14 18 21 19 19 18 18 17 18 18 19 13 9 10 33 91 72
86 84 78 78 73 85 87 87 86 93 100 88 93 96 99 97 99 90 85 92 90 80 61 36 25 16 16 22 22 22 22 22 22 20 23 21 18 14 10 12 48 78 71
65 69 78 78 85 84 95 94 99 100 99 99 98 99 100 100 96 82 95 97 89 68 39 25 19 16 23 25 26 24 24 25 27 26 25 26 17 13 10 17 66 70 67
59 62 71 73 76 83 98 100 98 100 99 99 98 99 98 95 92 97 98 92 72 46 26 21 23 29 32 29 29 29 26 26 27 26 25 26 17 12 10 43 84 77 74
68 70 70 86 98 100 99 99 100 99 98 98 100 96 95 99 99 97 92 80 54 34 65 37 28 54 46 48 38 32 28 28 30 28 21 20 14 12 12 45 86 83 80
58 66 81 86 96 98 93 100 99 98 100 99 99 96 97 100 99 94 91 48 38 67 54 69 65 53 74 62 40 33 30 28 31 29 20 14 15 15 12 51 100 87 88
33 49 95 98 99 100 97 89 70 100 100 98 97 98 100 99 96 93 80 54 78 63 86 60 65 88 81 60 37 28 28 26 23 24 20 16 18 31 35 94 90 95 93
Wind_Speed
41 33 30 25 24 19 14 16 10 9 10 6 7 7 7 5 4 3 4 6 5 4 4 8 10 14 16 18 19 19 17 16 16 16 17 17 17 18 18 18 18 18 19
38 26 27 24 22 18 16 14 10 13 12 9 8 8 8 6 6 6 7 8 8 7 8 10 10 14 18 21 21 21 20 21 20 18 18 19 19 20 20 20 20 21 22
32 25 28 22 23 18 19 15 11 13 13 10 8 10 9 7 7 7 9 12 11 10 12 14 15 18 22 24 23 22 22 23 24 23 21 21 20 20 22 24 25 27 29
27 30 29 26 25 20 19 13 12 13 12 9 11 12 11 9 8 10 12 13 14 15 16 17 18 19 22 23 23 22 21 22 25 27 25 25 24 24 24 27 29 31 33
32 32 30 26 25 22 17 14 14 14 14 12 14 13 12 10 11 11 10 11 14 16 18 21 20 19 19 20 22 22 23 23 25 27 28 28 27 28 29 31 33 35 37
38 28 32 32 28 23 17 16 17 16 14 14 15 15 14 12 12 13 12 12 15 18 19 20 20 19 18 19 22 23 25 26 25 26 28 29 30 31 33 34 36 38 40
33 33 34 29 24 20 17 20 19 16 14 15 17 17 17 17 16 14 14 15 16 20 22 24 22 21 20 21 22 25 26 26 27 26 28 30 32 33 35 37 38 40 43
35 38 31 28 22 23 23 22 18 17 18 16 17 19 21 20 20 20 19 20 21 22 20 23 24 25 26 27 29 26 28 28 25 27 30 31 33 36 38 40 42 44 46
38 38 34 26 25 24 25 22 21 20 21 21 21 23 24 23 22 24 24 25 26 26 24 26 29 31 30 33 31 32 30 28 29 28 31 33 34 37 40 42 44 46 49
32 33 31 27 25 27 28 26 23 20 21 24 25 26 28 27 28 30 28 29 31 31 30 32 33 32 35 33 35 36 36 34 35 32 34 36 38 40 42 44 45 47 50
31 29 26 28 31 32 28 25 22 22 19 22 27 29 32 33 33 33 31 31 35 35 34 34 36 35 35 37 39 39 37 37 38 35 37 39 42 44 45 46 47 48 50
26 26 26 24 27 28 27 26 22 26 26 24 29 32 37 36 36 35 36 33 37 37 36 34 36 35 38 41 42 39 40 40 40 39 40 43 45 46 48 49 51 51 52
21 20 24 26 27 25 25 26 25 25 27 28 34 36 28 39 40 42 35 38 37 38 39 39 36 37 41 41 40 40 40 41 40 40 43 44 46 47 48 50 52 53 52
21 23 26 27 27 25 27 26 26 26 30 35 33 37 36 35 41 39 37 39 39 40 41 42 37 36 38 41 40 41 42 41 42 43 45 45 46 47 49 51 52 52 50
24 27 29 31 29 29 27 26 26 25 25 25 31 36 35 32 35 30 31 32 33 41 42 40 38 35 36 39 39 41 42 42 44 44 45 46 47 49 50 52 52 51 48
27 29 31 33 33 33 29 26 29 29 27 28 28 33 31 22 29 26 29 31 33 36 44 41 39 39 38 38 39 40 42 43 43 44 45 47 47 50 52 52 50 45 48
30 31 33 36 38 40 33 21 26 28 29 28 26 34 31 26 29 35 34 34 35 39 43 43 44 41 39 39 38 40 41 42 44 46 47 49 50 51 52 51 50 46 44
35 39 39 38 39 33 30 32 28 30 31 30 28 27 32 32 33 37 40 37 38 40 43 45 43 41 41 40 40 42 42 43 45 47 48 50 52 53 55 52 50 45 40
36 44 45 43 32 26 29 29 31 32 34 31 34 27 38 40 35 36 45 41 40 41 42 44 43 42 42 41 42 43 44 46 47 48 49 51 52 53 54 52 49 45 41
28 18 12 17 25 29 32 31 32 35 36 36 39 36 32 35 45 40 44 43 42 42 43 43 44 44 44 43 44 46 49 48 50 49 50 51 53 53 53 51 46 37 38
27 21 20 24 24 28 32 32 36 36 33 39 38 37 38 37 43 45 42 42 44 44 43 43 44 45 45 45 46 49 51 51 51 50 50 51 53 53 51 46 43 42 35
27 27 28 28 29 31 35 39 37 39 35 47 37 44 46 43 44 43 43 44 45 44 43 44 45 46 46 47 49 51 52 52 55 52 51 51 50 51 46 40 34 33 32
32 34 34 36 37 39 33 40 46 43 37 38 37 43 43 43 43 43 45 47 44 43 44 46 46 47 48 49 51 52 52 53 53 52 53 53 49 49 43 35 31 30 32
39 40 39 37 37 34 42 40 45 41 37 37 39 42 40 41 43 45 46 45 43 42 45 47 48 49 50 50 51 52 53 53 53 52 52 53 49 46 36 33 30 29 30
35 36 37 31 35 42 36 48 39 40 40 43 42 42 41 43 45 46 44 43 44 44 46 48 48 48 48 50 50 51 51 52 52 50 50 50 44 41 33 32 28 27 28
33 32 28 31 32 38 34 44 41 42 44 43 42 44 48 47 43 43 44 47 48 48 48 47 47 47 48 48 48 48 48 50 50 50 46 45 40 34 28 25 23 25 27
Wind_Direction
194 192 195 192 193 202 199 211 208 228 245 256 272 267 240 235 252 249 238 227 226 254 320 354 7 5 354 351 344 339 336 331 325 323 322 322 321 318 316 313 310 307 305
199 214 198 182 194 205 206 207 214 244 249 260 269 257 241 239 244 245 243 238 239 260 307 326 338 346 346 346 344 337 333 327 322 320 319 318 317 313 311 310 307 303 302
197 222 195 192 208 210 208 213 225 240 251 265 261 254 252 258 259 252 251 248 253 279 304 307 310 324 332 336 337 333 331 326 320 317 315 311 309 309 310 309 309 308 309
207 204 197 191 219 211 214 216 231 243 256 260 251 253 258 266 267 261 257 261 268 279 289 292 294 307 324 331 329 325 322 320 317 313 310 308 309 306 306 305 306 308 308
193 198 193 211 219 213 217 225 231 249 261 252 249 252 262 270 275 264 266 282 287 286 288 284 287 305 315 323 320 319 317 317 314 311 308 304 303 306 306 306 306 307 307
196 214 202 207 214 213 218 231 234 248 257 258 259 260 262 270 266 269 284 291 292 287 283 282 288 294 302 308 313 313 311 309 305 303 301 300 301 302 303 302 304 305 306
210 198 199 209 211 215 229 232 238 250 265 266 263 266 265 269 273 280 289 294 294 296 286 279 280 289 293 299 304 304 304 302 299 297 295 295 296 298 298 299 301 301 301
191 199 208 207 215 224 237 235 243 255 260 267 271 268 269 271 277 284 290 293 297 304 286 282 287 291 294 298 300 301 300 296 295 294 293 292 294 296 297 298 299 299 298
199 199 208 206 221 232 238 238 244 253 262 266 269 270 273 278 279 280 286 292 299 304 299 297 296 292 291 295 299 302 302 299 296 294 292 292 294 295 295 296 297 297 296
193 201 203 216 221 224 237 242 247 259 267 270 275 278 279 279 277 279 283 290 293 301 300 298 293 292 294 296 302 303 301 301 300 300 297 298 298 296 295 294 294 294 294
198 203 210 223 228 236 244 248 256 262 280 275 274 276 274 276 273 273 276 281 284 285 291 296 291 292 295 298 299 297 299 301 299 300 300 299 297 295 294 294 294 295 296
207 211 217 222 228 238 244 255 260 264 268 276 278 279 271 264 265 267 269 274 283 281 288 296 292 288 292 295 295 295 296 298 299 300 299 297 296 297 298 297 298 301 300
220 224 231 234 237 244 248 252 257 262 263 269 273 266 290 289 265 261 261 274 282 281 286 290 287 284 291 291 291 292 293 294 295 295 294 295 296 296 297 298 299 299 300
225 229 235 237 237 245 247 250 260 266 274 267 272 289 292 300 285 277 264 276 280 281 283 284 280 284 287 288 290 292 292 292 292 294 294 294 293 293 294 296 298 300 301
232 232 236 241 241 245 247 256 262 271 274 280 269 287 292 288 275 281 278 275 282 279 280 282 282 283 285 285 286 286 286 288 287 288 289 290 292 294 294 297 300 298 302
245 245 243 247 250 248 243 252 262 270 274 283 267 277 280 273 287 276 284 283 277 277 281 282 284 287 284 282 282 284 285 286 287 288 289 290 292 293 296 298 299 292 296
250 254 251 249 250 249 241 253 257 260 272 269 269 270 284 278 281 278 288 284 280 278 280 283 285 286 284 283 284 285 287 288 289 291 292 295 296 298 299 299 297 295 294
258 257 258 252 257 259 264 265 268 261 271 274 264 276 281 273 278 277 281 282 279 279 280 284 286 285 285 287 287 289 290 290 291 292 294 297 299 301 301 300 297 295 296
280 279 257 268 254 255 263 264 264 260 274 271 278 267 266 275 275 284 275 281 279 279 283 285 284 284 284 287 290 292 292 291 292 294 297 299 300 299 299 297 292 289 286
302 289 251 243 243 249 260 261 264 264 279 275 278 273 269 284 271 273 278 278 280 281 281 280 282 284 287 291 293 294 292 293 294 296 298 298 299 298 297 294 292 283 287
280 277 265 259 256 258 261 263 263 272 271 286 265 285 262 283 267 283 278 277 278 278 278 280 282 285 289 291 293 294 293 294 295 296 297 298 297 299 298 293 283 285 281
281 275 272 269 266 267 268 264 262 272 287 250 250 269 258 262 278 280 275 275 275 278 280 282 285 287 290 293 293 292 293 294 295 298 296 297 299 299 298 290 277 279 280
279 278 276 274 272 271 254 247 277 275 269 260 282 262 270 280 279 272 274 275 278 280 282 285 286 288 290 292 292 292 293 295 297 299 299 299 301 300 298 286 276 277 281
277 276 278 277 277 250 269 263 267 267 251 276 262 277 281 273 271 275 277 277 279 281 282 284 285 289 290 292 294 295 296 297 297 299 299 300 301 301 291 277 274 277 278
278 276 273 274 268 261 269 264 258 282 265 278 270 280 275 272 271 273 274 274 274 277 278 281 285 287 290 293 293 293 295 295 296 297 297 297 299 297 282 267 270 273 271
281 278 275 275 264 260 262 274 283 261 264 268 277 277 274 269 271 272 273 273 277 275 278 280 283 287 290 292 293 293 294 294 295 295 296 294 296 292 274 263 272 271 272